This is the latest recevied weather packets stored in our database for station/object K7FLA. If no packets are shown the sender has not sent any weather packets the latest 1 day(s).
| Time | Temp. | Humidity | Pressure | Rain* | Wind** | Luminosity | Snow |
|---|---|---|---|---|---|---|---|
| 1778012839 | 17.22° C | 54% | 1094.7 hPa | 0 mm | 1.34 m/s, 254° | 1110 W/m² | - |
| 1778012535 | 16.67° C | 51% | 1094.7 hPa | 0 mm | 1.34 m/s, 243° | 322 W/m² | - |
| 1778012232 | 17.22° C | 49% | 1094.6 hPa | 0 mm | 1.79 m/s, 281° | 187 W/m² | - |
| 1778011930 | 17.22° C | 52% | 1094.6 hPa | 0 mm | 1.34 m/s, 256° | 165 W/m² | - |
| 1778011628 | 17.78° C | 51% | 1094.7 hPa | 0 mm | 2.24 m/s, 230° | 238 W/m² | - |
| 1778011325 | 17.78° C | 51% | 1094.9 hPa | 0 mm | 1.79 m/s, 222° | 709 W/m² | - |
| 1778011020 | 16.67° C | 55% | 1094.9 hPa | 0 mm | 1.34 m/s, 241° | 640 W/m² | - |
| 1778010718 | 16.11° C | 56% | 1094.7 hPa | 0 mm | 0.89 m/s, 245° | 786 W/m² | - |
| 1778010415 | 16.11° C | 57% | 1095 hPa | 0 mm | 0.45 m/s, 249° | 291 W/m² | - |
| 1778010111 | 16.11° C | 55% | 1095 hPa | 0 mm | 0.89 m/s, 193° | 124 W/m² | - |
| 1778009808 | 16.67° C | 55% | 1095 hPa | 0 mm | 0.45 m/s, 214° | 125 W/m² | - |
| 1778009505 | 16.67° C | 55% | 1094.9 hPa | 0 mm | 0.45 m/s, 239° | 151 W/m² | - |
| 1778009204 | 16.67° C | 56% | 1095 hPa | 0 mm | 1.34 m/s, 274° | 242 W/m² | - |
| 1778008901 | 16.67° C | 52% | 1095 hPa | 0 mm | 0.45 m/s, 209° | 366 W/m² | - |
| 1778008599 | 16.11° C | 54% | 1095 hPa | 0 mm | 0 m/s | 380 W/m² | - |
| 1778008297 | 16.11° C | 54% | 1095 hPa | 0 mm | 0.89 m/s, 159° | 602 W/m² | - |
| 1778007992 | 16.11° C | 58% | 1095.1 hPa | 0 mm | 0.89 m/s, 222° | 325 W/m² | - |
| 1778007687 | 15.56° C | 58% | 1095.1 hPa | 0 mm | 0.89 m/s, 225° | 220 W/m² | - |
| 1778007384 | 16.11° C | 56% | 1095 hPa | 0 mm | 1.34 m/s, 219° | 197 W/m² | - |
| 1778007080 | 16.11° C | 55% | 1095 hPa | 0 mm | 1.79 m/s, 232° | 237 W/m² | - |
| 1778006777 | 16.67° C | 56% | 1095.1 hPa | 0 mm | 0.89 m/s, 213° | 287 W/m² | - |
| 1778006474 | 16.67° C | 56% | 1095.1 hPa | 0 mm | 0.45 m/s, 184° | 325 W/m² | - |
| 1778006171 | 16.67° C | 60% | 1095.2 hPa | 0 mm | 0.89 m/s, 228° | 270 W/m² | - |
| 1778005869 | 16.67° C | 59% | 1095.1 hPa | 0 mm | 1.79 m/s, 236° | 318 W/m² | - |
| 1778005564 | 16.67° C | 59% | 1095.1 hPa | 0 mm | 1.79 m/s, 117° | 483 W/m² | - |
* Rain latest hour (hover to see other rain measurements)
** Current wind speed in m/s (hover to see current wind gust speed)